Weather History for KSBN - September, 2012

Change the Weather History Date:

Thursday, September 6, 2012

  Actual Average Record
Temperature  
Mean Temperature 72 °F 68 °F  
Max Temperature 82 °F 78 °F 97 °F (1954)
Min Temperature 62 °F 58 °F 40 °F (1962)
Degree Days  
Heating Degree Days 0 2  
Month to date heating degree days 0 7  
Since 1 July heating degree days 10 25  
Cooling Degree Days 7 4  
Month to date cooling degree days 64 28  
Year to date cooling degree days 1092 710  
Growing Degree Days 23 (Base 50)    
Moisture  
Dew Point 62 °F    
Average Humidity 68    
Maximum Humidity 93    
Minimum Humidity 42    
Precipitation  
Precipitation 0.00 in 0.12 in 1.01 in (1971)
Month to date precipitation 0.67 0.72  
Year to date precipitation 25.25 25.99  
Snow  
Snow 0.00 in - - ()
Month to date snowfall 0.0  
Snow Depth 0.00 in    
Sea Level Pressure  
Sea Level Pressure 29.90 in    
Wind  
Wind Speed 5 mph (West)    
Max Wind Speed 14 mph    
Max Gust Speed 18 mph    
Visibility 9 miles    
Events      
T = Trace of Precipitation, MM = Missing Value Source: NWS Daily Summary

Daily Weather History Graph

Daily Weather History Graph

Search for Another Location

Airport or City:

Trip Planner

Search our weather history database for the weather conditions in past years. The results will help you decide how hot, cold, wet, or windy it might be!

Date:

Astronomy

Sep. 06, 2012 Rise Set
Actual Time 7:16 AM EDT 8:09 PM EDT
Civil Twilight 6:48 AM EDT 8:37 PM EDT
Nautical Twilight 6:14 AM EDT 9:10 PM EDT
Astronomical Twilight 5:39 AM EDT 9:45 PM EDT
Moon 11:13 PM EDT (9/6) 1:21 PM EDT (9/6)
Length of Visible Light 13h 48m
Length of Day
12h 52m
Waning Gibbous, 67% of the Moon is Illuminated
Sep 6
Waning Gibbous
Sep 8
Last Quarter
Sep 15
New
Sep 22
First Quarter
Sep 29
Full

Hourly Weather History & Observations

Time (EDT) Temp. Heat Index Dew Point Humidity Pressure Visibility Wind Dir Wind Speed Gust Speed Precip Events Conditions
12:54 AM 71.1 °F - 64.9 °F 81% 29.83 in 10.0 mi SSW 9.2 mph - N/A   Clear
1:54 AM 70.0 °F - 64.9 °F 84% 29.83 in 10.0 mi SSW 10.4 mph - N/A   Scattered Clouds
2:54 AM 69.1 °F - 64.9 °F 87% 29.84 in 10.0 mi SW 6.9 mph - N/A   Partly Cloudy
3:54 AM 69.1 °F - 64.9 °F 87% 29.84 in 10.0 mi WSW 4.6 mph - N/A   Mostly Cloudy
4:54 AM 66.9 °F - 64.9 °F 93% 29.85 in 10.0 mi WSW 3.5 mph - N/A   Clear
5:54 AM 66.0 °F - 64.0 °F 93% 29.86 in 8.0 mi SSW 4.6 mph - N/A   Clear
6:54 AM 66.0 °F - 64.0 °F 93% 29.88 in 6.0 mi SW 3.5 mph - N/A   Partly Cloudy
7:54 AM 66.0 °F - 64.0 °F 93% 29.90 in 5.0 mi Calm Calm - N/A   Clear
8:54 AM 69.1 °F - 66.0 °F 90% 29.91 in 7.0 mi SSW 4.6 mph - N/A   Clear
9:54 AM 73.9 °F - 69.1 °F 85% 29.91 in 7.0 mi West 3.5 mph - N/A   Clear
10:54 AM 78.1 °F - 68.0 °F 71% 29.91 in 10.0 mi NW 6.9 mph - N/A   Clear
11:54 AM 80.1 °F 81.9 °F 64.9 °F 60% 29.92 in 10.0 mi West 9.2 mph - N/A   Clear
12:54 PM 81.0 °F 82.2 °F 63.0 °F 54% 29.92 in 10.0 mi West 10.4 mph - N/A   Partly Cloudy
1:54 PM 81.0 °F 81.6 °F 60.1 °F 49% 29.93 in 10.0 mi WNW 8.1 mph - N/A   Partly Cloudy
2:54 PM 82.0 °F 82.0 °F 57.9 °F 44% 29.92 in 10.0 mi NW 9.2 mph - N/A   Clear
3:54 PM 81.0 °F 81.3 °F 59.0 °F 47% 29.92 in 10.0 mi WNW 10.4 mph - N/A   Clear
4:54 PM 81.0 °F 80.8 °F 55.9 °F 42% 29.91 in 10.0 mi NW 8.1 mph - N/A   Clear
5:54 PM 80.1 °F 80.2 °F 55.9 °F 43% 29.90 in 10.0 mi NW 4.6 mph - N/A   Clear
6:54 PM 78.1 °F - 57.9 °F 50% 29.91 in 10.0 mi NNW 6.9 mph - N/A   Clear
7:54 PM 72.0 °F - 59.0 °F 64% 29.92 in 10.0 mi NNW 3.5 mph - N/A   Clear
8:54 PM 70.0 °F - 59.0 °F 68% 29.93 in 10.0 mi Calm Calm - N/A   Clear
9:54 PM 66.9 °F - 59.0 °F 76% 29.93 in 10.0 mi NNE 3.5 mph - N/A   Clear
10:54 PM 64.0 °F - 57.9 °F 80% 29.93 in 10.0 mi Calm Calm - N/A   Clear
11:54 PM 66.0 °F - 59.0 °F 78% 29.92 in 10.0 mi Calm Calm - N/A   Clear